Flag for Germany Weather past 2 weeks in Alsdorf, North Rhine-Westphalia, Germany

Now
46 °F

Passing clouds.


Feels Like: 39 °F
Forecast: 41 / 48 °F
Wind: 17 mph from West

Location: Geilenkirchen Airport

Current Time: Oct 21, 2014 at 11:44:47 PM

Latest Report: Oct 21, 2014 at 10:50 PM


Visibility: N/A

Pressure: 29.77 "Hg

Humidity: 87%

Dew point: 43 °F

Location of AlsdorfLocation

Historic Weather in Alsdorf — Graph

°F

Alsdorf temperature yesterday

Maximum temperature yesterday: 61 °F (at 12:50 AM)
Minimum temperature yesterday: 55 °F (at 10:50 PM)
Average temperature yesterday: 59 °F

Past Weeks' High & Low Weather Summary

 TemperatureHumidityPressure
High75 °F (Oct 18, 2:50 PM)100% (Oct 7, 8:50 AM)30.09 "Hg (Oct 7, 8:50 AM)
Low48 °F (Oct 21, 6:50 PM)0% (Oct 12, 11:50 PM)29.53 "Hg (Oct 7, 7:50 AM)
Average59 °F83%29.79 "Hg
* Reported Oct 6 9:50 PM — Oct 21 9:50 PM, Alsdorf, Weather by CustomWeather, © 2014

Note: Actual official high and low records may vary slightly from our data, if they occured in-between our weather recording intervals... More about our weather records

Advertising

Alsdorf weather history for previous 24 hours

 ConditionsComfort  
Time TempWeatherWind HumidityBarometerVisibility
9:50 PM
Oct 21
48 °FPassing clouds.17 mph76%29.77 "HgN/A
8:50 PM48 °FSprinkles. Passing clouds.15 mph82%29.74 "HgN/A
7:50 PM48 °FClear.17 mph82%29.71 "Hg10 mi
6:50 PM48 °FBroken clouds.23 mph82%29.68 "HgN/A
5:50 PM50 °FSprinkles. Broken clouds.20 mph94%29.62 "HgN/A
4:50 PM52 °FSprinkles. Broken clouds.18 mph88%29.59 "HgN/A
3:50 PM57 °FSprinkles. Partly sunny.20 mph88%29.53 "HgN/A
2:50 PM55 °FSprinkles. Broken clouds.15 mph88%29.56 "HgN/A
1:50 PM55 °FBroken clouds.15 mph88%29.59 "HgN/A
12:50 PM54 °FLight rain. Broken clouds.14 mph94%29.65 "Hg5 mi
11:50 AM55 °FRain showers. Broken clouds.15 mph94%29.68 "Hg5 mi
10:50 AM55 °FPartly sunny.16 mph82%29.71 "HgN/A
9:50 AM55 °FLight rain. More clouds than sun.13 mph82%29.77 "HgN/A
8:50 AM54 °FPartly cloudy.8 mph82%29.80 "HgN/A
7:50 AM54 °FPassing clouds.9 mph88%29.80 "HgN/A
6:50 AM55 °FClear.10 mph82%29.83 "Hg10 mi
5:50 AM54 °FPassing clouds.7 mph88%29.86 "HgN/A
4:50 AM54 °FClear.8 mph94%29.89 "Hg10 mi
3:50 AM54 °FClear.7 mph88%29.92 "Hg10 mi
2:50 AM54 °FClear.7 mph88%29.92 "Hg10 mi
1:50 AM54 °FClear.7 mph94%29.95 "Hg10 mi
12:50 AM54 °FClear.7 mph94%29.95 "Hg10 mi
11:50 PM
Oct 20
55 °FClear.7 mph88%29.95 "Hg10 mi
Weather by CustomWeather, © 2014

See weather overviewHow to use our weather pages